User: anonymous   Login
Location: Borgo
(42.3939°N, 9.2791°E)
Time: 08:50:15
(UTC+00:00)
Language:

COSMO-SKYMED 1 - Orbit

View from above orbital plane
View from above orbital plane
View from above satellite
View from above satellite

Ground track
Ground track

The orbit data is extracted from the following two-line orbital elements,

1 31598U 07023A   21104.84480543 -.00000142  00000-0 -11315-4 0  9996
2 31598  97.8892 289.6387 0001573  89.8990 270.2408 14.82155157749476
Epoch (UTC): 14 April 2021 20:16:31
Eccentricity: 0.0001573
inclination: 97.8892°
perigee height: 621 km
apogee height: 623 km
right ascension of ascending node: 289.6387°
argument of perigee: 89.8990°
revolutions per day: 14.82155157
mean anomaly at epoch: 270.2408°
orbit number at epoch: 74947

The dashed part of the orbit path shows where the satellite is in the earth's shadow,  

DLR